Lexington Weather

Lexington, Massachusetts, USA

75°F
9/22/2021 12:45pm 
  • Lexington Conditions: Overcast
  • Temperature: 75.4°F / 24.1°CWarmer 0.7°F than last hour.
  • Dew Point: 68.7°F 
  • Relative Humidity: 80%Decreased 2.0% since last hour.
  • Wind: Wind from NW NW 3 mph, 10-min avg: 3 mph, gust: 12 mph
  • Barometer: 30.11 inFalling 0.02  inHg/hr Falling Slowly
  • Visibility: 10 miles
  • Rain Today: 0.00 in
  •   

Regional Weather Roundup
for Boston / Norton, MA

        
000
ASUS41 KBOX 212104
RWRBOX

REGIONAL WEATHER ROUNDUP
NATIONAL WEATHER SERVICE BOSTON/NORTON MA
500 PM EDT TUE SEP 21 2021

NOTE:  "FAIR" INDICATES FEW OR NO CLOUDS BELOW 12,000 FEET WITH NO 
SIGNIFICANT WEATHER AND/OR OBSTRUCTIONS TO VISIBILITY.

MAZALL-212200-
EASTERN MASSACHUSETTS
  
CITY           SKY/WX    TMP DP  RH WIND       PRES   REMARKS
BOSTON         MOSUNNY   72  63  73 E9        30.34S                  
BEVERLY        MOSUNNY   71  63  75 S6        30.34S                  
LAWRENCE       MOSUNNY   72  60  66 VRB6      30.36S                  
BEDFORD        PTSUNNY   74  63  68 E7        30.33S                  
BLUE HILL      NOT AVBL                                               
NORWOOD        PTSUNNY   75  57  53 S8        30.33S                  
MARSHFIELD     MOSUNNY   72  64  78 SE5       30.33F                  
PLYMOUTH       MOSUNNY   73  62  68 S8        30.34S                  
TAUNTON        PTSUNNY   75  60  59 S5        30.33S                  
NEW BEDFORD    PTSUNNY   74  62  66 SE6       30.33F                  
$$

MAZALL-212200-
CAPE COD AND THE ISLANDS
  
CITY           SKY/WX    TMP DP  RH WIND       PRES   REMARKS
FALMOUTH       PTSUNNY   73  64  73 S14       30.35S                  
HYANNIS        MOSUNNY   71  64  78 VRB7      30.34S                  
CHATHAM        PTSUNNY   69  62  78 SE8       30.36F                  
PROVINCETOWN   SUNNY     72  64  76 SE9       30.36S                  
NANTUCKET      CLOUDY    71  64  78 E13       30.35S                  
MARTHAS VNYRD  PTSUNNY   73  65  75 SE9       30.34F                  
$$
 
MAZALL-212200-
CENTRAL AND WESTERN MASSACHUSETTS
  
CITY           SKY/WX    TMP DP  RH WIND       PRES   REMARKS
WORCESTER      MOSUNNY   70  59  68 SE12      30.36S                  
FITCHBURG      MOSUNNY   74  55  51 S9        30.34S                  
ORANGE         MOSUNNY   73  58  59 S9        30.33F                  
SPRINGFIELD    NOT AVBL                                               
WESTFIELD      CLOUDY    73  62  68 S7        30.31F                  
NORTH ADAMS    PTSUNNY   73  53  49 CALM      30.31F                  
PITTSFIELD     PTSUNNY   69  55  60 S7G18     30.32S                  
$$
 
RIZALL-212200-
RHODE ISLAND
  
CITY           SKY/WX    TMP DP  RH WIND       PRES   REMARKS
PROVIDENCE     MOSUNNY   74  57  55 S8        30.35R                  
NEWPORT        PTSUNNY   71  59  65 SE6       30.34S                  
BLOCK ISLAND   MOSUNNY   69  61  75 E9        30.34S                  
SMITHFIELD     SUNNY     72  57  59 CALM      30.35S                  
WESTERLY       LGT RAIN  69  61  75 E6        30.34S                  
$$
 
CTZALL-212200-
CONNECTICUT
  
CITY           SKY/WX    TMP DP  RH WIND       PRES   REMARKS
BRADLEY INTL   PTSUNNY   74  61  63 S8        30.31F                  
HARTFORD       PTSUNNY   74  60  61 S6        30.31F                  
BRIDGEPORT     PTSUNNY   74  65  73 E10       30.31S                  
DANBURY        PTSUNNY   73  63  70 SE8       30.32F                  
GROTON         CLOUDY    71  62  73 E10       30.32F                  
NEW HAVEN      MOSUNNY   75  66  73 SE13G18   30.32S                  
CHESTER        PTSUNNY   73  63  68 VRB6      30.34S                  
MERIDEN        MOSUNNY   74  61  63 S9        30.31F                  
WILLIMANTIC    MOSUNNY   73  58  59 S5        30.33S                  
OXFORD         PTSUNNY   71  63  75 SE8       30.34S                  
$$

MEZ002-015-021-024-NHZ003-005-008-011-012-014-VTZ005-008-212200-
NORTHERN NEW ENGLAND
  
CITY           SKY/WX    TMP DP  RH WIND       PRES   REMARKS
PORTLAND ME    PTSUNNY   66  62  87 SE9       30.37S                  
BANGOR ME      MOSUNNY   68  58  70 S13G22    30.37S                  
CONCORD NH     MOSUNNY   73  55  53 S12       30.33F                  
MANCHESTER NH  MOSUNNY   75  56  51 S10       30.32S                  
NASHUA NH      MOSUNNY   73  62  68 S5        30.34S                  
PORTSMOUTH NH  MOSUNNY   68  61  77 SE12      30.35S                  
JAFFREY NH     MOSUNNY   71  59  65 S7        30.35F                  
KEENE NH       MOSUNNY   70  58  65 S5        30.32F                  
BURLINGTON VT  PTSUNNY   75  54  47 S12       30.22S                  
MT. WASHINGTON MOSUNNY   52  23  32 SW26G36     N/A                   
$$

NYZ052-076-212200-
EASTERN NEW YORK
  
CITY           SKY/WX    TMP DP  RH WIND       PRES   REMARKS
ALBANY         PTSUNNY   68  55  63 S15G21    30.29S                  
NEW YORK CITY  PTSUNNY   74  65  73 VRB5      30.29S                  
$$
 
ANZALL-212200-
MARINE OBSERVATIONS
  
STATION/POSITION TIME  TEMP    WIND        PRES    VSBY  WAVE
                       AIR SEA DIR/SP/G                  HT/PER
                 (UTC) (F)     (DEG/KT/KT) (MB)    (MI)  (FT/S)
BOSTON BUOY      2040      65  110/  8/ 10 1028.0S
BUZZARDS BAY     2000          100/  5/  6 1028.5F
NANTUCKET SOUND  2040   71 72  120/ 10/ 12 1027.4F
MASS BAY-STELLWA 2004   66     130/ 10/ 12 1027.5F  1 7/8  4/11
ISLE OF SHOALS   2000   65     120/ 12/ 13 1027.3F
S OF BLOCK IS    2026      70                N/A           3/10
$$

......................KEY.........................
  SKY/WX - SKY CONDITION/PRESENT WEATHER
  TMP    - TEMPERATURE IN FAHRENHEIT
  DWPT   - DEWPOINT IN FAHRENHEIT
  RH     - RELATIVE HUMIDITY IN PERCENT
  WIND   - DIRECTION AND SPEED IN MPH
  PRES   - MEAN SEA LEVEL PRESSURE IN INCHES OF HG
  WCI    - WIND CHILL INDEX
  VSB    - VISIBILITY IN MILES
  HX     - HEAT INDEX
  TC     - TEMPERATURE IN CELSIUS
  VRB    - VARIABLE WIND DIRECTION
  N/A    - NOT AVAILABLE
  
      

Other recent Regional Weather Roundups

Wed Sep 22, 12:05pm

Wed Sep 22, 11:04am

Wed Sep 22, 10:04am

Wed Sep 22, 9:04am

Wed Sep 22, 8:04am

Wed Sep 22, 7:04am

Wed Sep 22, 6:04am

Wed Sep 22, 5:04am

Wed Sep 22, 4:04am

Wed Sep 22, 3:04am

Wed Sep 22, 2:04am

Wed Sep 22, 1:04am

Wed Sep 22, 12:04am

Tue Sep 21, 11:04pm

Tue Sep 21, 10:04pm

Tue Sep 21, 9:04pm

Tue Sep 21, 8:04pm

Tue Sep 21, 7:04pm

Tue Sep 21, 6:04pm

Tue Sep 21, 4:04pm

Tue Sep 21, 3:04pm

Tue Sep 21, 2:04pm

Tue Sep 21, 1:04pm

Tue Sep 21, 12:04pm

Tue Sep 21, 11:04am

Tue Sep 21, 10:04am

Tue Sep 21, 9:04am

Tue Sep 21, 8:04am

Tue Sep 21, 7:04am

Tue Sep 21, 6:04am

Tue Sep 21, 5:04am

Tue Sep 21, 4:04am

Tue Sep 21, 3:04am

Tue Sep 21, 2:04am

Tue Sep 21, 1:04am

Tue Sep 21, 12:04am

Mon Sep 20, 11:04pm

Mon Sep 20, 10:04pm

Mon Sep 20, 9:04pm

Mon Sep 20, 8:04pm

Mon Sep 20, 7:04pm

Mon Sep 20, 6:04pm

Mon Sep 20, 5:04pm

Mon Sep 20, 4:04pm

Mon Sep 20, 3:04pm

Mon Sep 20, 2:04pm

Mon Sep 20, 1:04pm

Mon Sep 20, 12:04pm

Mon Sep 20, 11:04am

Mon Sep 20, 10:04am

Mon Sep 20, 9:04am

Mon Sep 20, 7:04am

Mon Sep 20, 6:04am

Mon Sep 20, 5:04am

Mon Sep 20, 4:04am

Mon Sep 20, 3:04am

Mon Sep 20, 2:04am

Mon Sep 20, 1:04am

Mon Sep 20, 12:04am

Sun Sep 19, 11:04pm

Sun Sep 19, 10:04pm

Sun Sep 19, 9:04pm

Sun Sep 19, 8:04pm

Sun Sep 19, 7:04pm

Sun Sep 19, 6:04pm

Sun Sep 19, 5:04pm

Sun Sep 19, 4:04pm

Sun Sep 19, 3:04pm

Sun Sep 19, 2:05pm

Sun Sep 19, 1:04pm

Sun Sep 19, 12:04pm

Sun Sep 19, 11:04am

Sun Sep 19, 10:05am

Sun Sep 19, 9:04am

Sun Sep 19, 8:04am

Sun Sep 19, 7:04am

Sun Sep 19, 6:04am

Sun Sep 19, 5:04am

Sun Sep 19, 4:04am

Sun Sep 19, 3:04am

Sun Sep 19, 2:04am

Sun Sep 19, 1:04am

Sun Sep 19, 12:04am

Sat Sep 18, 11:05pm

Sat Sep 18, 10:04pm

Sat Sep 18, 9:04pm

Sat Sep 18, 8:04pm

Sat Sep 18, 7:04pm

Sat Sep 18, 6:04pm

Sat Sep 18, 5:04pm

Sat Sep 18, 4:04pm

Sat Sep 18, 3:04pm

Sat Sep 18, 2:04pm

Sat Sep 18, 1:04pm

Sat Sep 18, 12:04pm

Sat Sep 18, 11:04am

Sat Sep 18, 10:04am

Sat Sep 18, 9:04am

Sat Sep 18, 8:04am

Sat Sep 18, 7:04am

Sat Sep 18, 6:04am

Sat Sep 18, 5:04am

Sat Sep 18, 4:04am

Sat Sep 18, 3:04am

Sat Sep 18, 2:04am

Sat Sep 18, 1:04am

Sat Sep 18, 12:04am

Fri Sep 17, 11:04pm

Fri Sep 17, 10:04pm

Fri Sep 17, 9:04pm

Fri Sep 17, 8:04pm

Fri Sep 17, 7:04pm

Fri Sep 17, 6:04pm

Fri Sep 17, 5:04pm

Fri Sep 17, 4:04pm

Fri Sep 17, 3:04pm

Fri Sep 17, 2:04pm

Fri Sep 17, 1:04pm

Fri Sep 17, 12:05pm

Fri Sep 17, 11:04am

Fri Sep 17, 10:04am

Fri Sep 17, 9:04am

Fri Sep 17, 8:04am

Fri Sep 17, 7:04am

Fri Sep 17, 6:04am

Fri Sep 17, 5:04am

Fri Sep 17, 4:04am

Fri Sep 17, 3:04am

Fri Sep 17, 2:04am

Fri Sep 17, 1:04am

Fri Sep 17, 12:04am

Thu Sep 16, 11:04pm

Thu Sep 16, 10:04pm

Thu Sep 16, 9:04pm

Thu Sep 16, 8:04pm

Thu Sep 16, 7:04pm

Thu Sep 16, 6:04pm

Thu Sep 16, 5:04pm

Thu Sep 16, 4:04pm

Thu Sep 16, 3:04pm

Thu Sep 16, 2:04pm

Thu Sep 16, 1:05pm

Thu Sep 16, 12:04pm

Thu Sep 16, 11:05am

Thu Sep 16, 10:05am

Thu Sep 16, 9:04am

Thu Sep 16, 8:04am

Thu Sep 16, 7:04am

Thu Sep 16, 6:04am

Thu Sep 16, 5:04am

Thu Sep 16, 4:04am

Thu Sep 16, 3:04am

Thu Sep 16, 2:04am

Thu Sep 16, 1:04am

Thu Sep 16, 12:04am

Wed Sep 15, 11:04pm

Wed Sep 15, 10:04pm

Wed Sep 15, 9:04pm

Wed Sep 15, 8:04pm

Wed Sep 15, 7:04pm

Wed Sep 15, 6:04pm

Wed Sep 15, 5:05pm

Wed Sep 15, 4:04pm

Wed Sep 15, 3:04pm

Wed Sep 15, 2:04pm

Wed Sep 15, 1:04pm

Meta data:

ID: 49efa813-bf70-45c9-83a2-5135b99e6fb1
Link: https://api.weather.gov/products/49efa813-bf70-45c9-83a2-5135b99e6fb1